Location: Miles
(41.4492°N, 81.6087°W)
Time: 22:56:34
(UTC+00:00)

Explorer 11/Cluster Stage 4 - Pass Details

Date: 20 September 2024
Orbit: 464 x 1208 km, 28.8° (Epoch: 06 October)

Event Time Altitude Azimuth Distance (km) Brightness Sun altitude
Exits shadow 10:37:47 - 229° (SW) 2,802 8.9 -7.3°
Reaches altitude 10° 10:39:32 10° 218° (SW) 2,314 8.6 -7.0°
Maximum altitude 10:43:46 22° 168° (SSE) 1,790 8.5 -6.2°
Drops below altitude 10° 10:48:41 10° 120° (ESE) 2,726 10.3 -5.3°
Sets 10:52:12 0° 107° (ESE) 3,810 11.6 -4.6°
